13-04-2022, 00:00:06,    205,    0.0,    7.8,   0.00,   0.00, 1007.7,   93.4, -999.0
13-04-2022, 00:00:16,    206,    0.0,    7.9,   0.00,   0.00, 1007.7,   93.4, -999.0
13-04-2022, 00:00:26,    206,    0.0,    7.9,   0.00,   0.00, 1007.7,   93.4, -999.0
13-04-2022, 00:00:36,    206,    0.0,    7.9,   0.00,   0.00, 1007.7,   93.4, -999.0
13-04-2022, 00:00:46,    206,    0.0,    7.9,   0.00,   0.00, 1007.7,   93.4, -999.0
13-04-2022, 00:00:56,    206,    0.0,    7.9,   0.00,   0.00, 1007.7,   93.4, -999.0
13-04-2022, 00:01:06,    206,    0.0,    7.9,   0.00,   0.00, 1007.7,   93.5, -999.0
13-04-2022, 00:01:16,    206,    0.0,    7.9,   0.00,   0.00, 1007.7,   93.4, -999.0
13-04-2022, 00:01:26,    206,    0.0,    7.9,   0.00,   0.00, 1007.7,   93.4, -999.0
13-04-2022, 00:01:36,    206,    0.0,    7.9,   0.00,   0.00, 1007.7,   93.4, -999.0
13-04-2022, 00:01:46,    206,    0.0,    7.9,   0.00,   0.00, 1007.7,   93.4, -999.0
13-04-2022, 00:01:56,    174,    0.0,    7.9,   0.00,   0.00, 1007.7,   93.6, -999.0
13-04-2022, 00:02:05,    173,    0.0,    7.9,   0.00,   0.00, 1007.7,   93.6, -999.0
13-04-2022, 00:02:16,    173,    0.0,    7.9,   0.00,   0.00, 1007.7,   93.5, -999.0
13-04-2022, 00:02:26,    173,    0.0,    7.9,   0.00,   0.00, 1007.7,   93.6, -999.0
13-04-2022, 00:02:35,    173,    0.0,    7.9,   0.00,   0.00, 1007.7,   93.5, -999.0
13-04-2022, 00:02:45,    173,    0.0,    7.9,   0.00,   0.00, 1007.7,   93.6, -999.0
13-04-2022, 00:02:55,    173,    0.0,    7.9,   0.00,   0.00, 1007.7,   93.5, -999.0
13-04-2022, 00:03:05,    173,    0.0,    7.9,   0.00,   0.00, 1007.7,   93.5, -999.0
13-04-2022, 00:03:15,    173,    0.0,    7.9,   0.00,   0.00, 1007.7,   93.6, -999.0
13-04-2022, 00:03:25,    173,    0.0,    7.9,   0.00,   0.00, 1007.7,   93.5, -999.0
13-04-2022, 00:03:35,    173,    0.0,    7.8,   0.00,   0.00, 1007.7,   93.7, -999.0
13-04-2022, 00:03:45,    174,    0.0,    8.0,   0.00,   0.00, 1007.7,   93.8, -999.0
13-04-2022, 00:03:55,    222,    0.3,    8.0,   0.00,   0.00, 1007.8,   93.9, -999.0
13-04-2022, 00:04:05,    222,    0.0,    8.0,   0.00,   0.00, 1007.7,   93.7, -999.0
13-04-2022, 00:04:15,    222,    0.0,    7.9,   0.00,   0.00, 1007.7,   93.6, -999.0
13-04-2022, 00:04:25,    222,    0.0,    7.9,   0.00,   0.00, 1007.7,   93.7, -999.0
13-04-2022, 00:04:35,    222,    0.0,    7.9,   0.00,   0.00, 1007.7,   93.7, -999.0
13-04-2022, 00:04:45,    222,    0.0,    7.9,   0.00,   0.00, 1007.7,   93.8, -999.0
13-04-2022, 00:04:55,    222,    0.0,    7.9,   0.00,   0.00, 1007.7,   93.7, -999.0
13-04-2022, 00:05:05,    222,    0.0,    7.9,   0.00,   0.00, 1007.7,   93.7, -999.0
13-04-2022, 00:05:14,    222,    0.0,    8.0,   0.00,   0.00, 1007.7,   93.8, -999.0
13-04-2022, 00:05:25,    222,    0.0,    7.9,   0.00,   0.00, 1007.7,   93.7, -999.0
13-04-2022, 00:05:35,    222,    0.0,    7.9,   0.00,   0.00, 1007.7,   93.7, -999.0
13-04-2022, 00:05:44,    221,    0.0,    7.9,   0.00,   0.00, 1007.7,   93.7, -999.0
13-04-2022, 00:05:55,    221,    0.0,    7.8,   0.00,   0.00, 1007.7,   93.8, -999.0
13-04-2022, 00:06:05,    221,    0.0,    7.9,   0.00,   0.00, 1007.7,   93.7, -999.0
13-04-2022, 00:06:14,    221,    0.0,    7.9,   0.00,   0.00, 1007.7,   93.7, -999.0
13-04-2022, 00:06:24,    222,    0.0,    7.9,   0.00,   0.00, 1007.7,   93.7, -999.0
13-04-2022, 00:06:35,    222,    0.0,    7.9,   0.00,   0.00, 1007.7,   93.8, -999.0
13-04-2022, 00:06:44,    222,    0.0,    7.9,   0.00,   0.00, 1007.7,   93.8, -999.0
13-04-2022, 00:06:54,    221,    0.0,    7.9,   0.00,   0.00, 1007.7,   93.7, -999.0
13-04-2022, 00:07:04,    222,    0.0,    7.9,   0.00,   0.00, 1007.7,   93.8, -999.0
13-04-2022, 00:07:14,    222,    0.0,    7.9,   0.00,   0.00, 1007.7,   93.7, -999.0
13-04-2022, 00:07:24,    222,    0.0,    7.8,   0.00,   0.00, 1007.7,   93.7, -999.0
13-04-2022, 00:07:34,    222,    0.0,    7.8,   0.00,   0.00, 1007.7,   93.8, -999.0
13-04-2022, 00:07:44,    222,    0.0,    7.9,   0.00,   0.00, 1007.7,   93.7, -999.0
13-04-2022, 00:07:54,    221,    0.0,    7.9,   0.00,   0.00, 1007.7,   93.9, -999.0
13-04-2022, 00:08:04,    222,    0.0,    7.9,   0.00,   0.00, 1007.7,   93.8, -999.0
13-04-2022, 00:08:14,    222,    0.0,    7.9,   0.00,   0.00, 1007.7,   94.1, -999.0
13-04-2022, 00:08:24,    222,    0.0,    8.0,   0.00,   0.00, 1007.7,   94.1, -999.0
13-04-2022, 00:08:34,    222,    0.0,    8.0,   0.00,   0.00, 1007.7,   94.2, -999.0
13-04-2022, 00:08:44,    222,    0.0,    8.0,   0.00,   0.00, 1007.8,   94.2, -999.0
13-04-2022, 00:08:55,    222,    0.0,    8.1,   0.00,   0.00, 1007.7,   94.2, -999.0
13-04-2022, 00:09:04,    221,    0.0,    8.0,   0.00,   0.00, 1007.7,   94.0, -999.0
13-04-2022, 00:09:14,    222,    0.0,    8.0,   0.00,   0.00, 1007.7,   94.1, -999.0
13-04-2022, 00:09:23,    222,    0.0,    8.0,   0.00,   0.00, 1007.7,   94.0, -999.0
13-04-2022, 00:09:33,    222,    0.0,    7.9,   0.00,   0.00, 1007.8,   94.0, -999.0
13-04-2022, 00:09:44,    222,    0.0,    8.0,   0.00,   0.00, 1007.8,   94.0, -999.0
13-04-2022, 00:09:53,    221,    0.0,    7.9,   0.00,   0.00, 1007.8,   93.9, -999.0
13-04-2022, 00:10:03,    221,    0.0,    7.9,   0.00,   0.00, 1007.7,   93.9, -999.0
13-04-2022, 00:10:13,    221,    0.0,    7.9,   0.00,   0.00, 1007.8,   93.9, -999.0
13-04-2022, 00:10:23,    222,    0.0,    7.9,   0.00,   0.00, 1007.8,   94.0, -999.0
13-04-2022, 00:10:33,    222,    0.0,    7.9,   0.00,   0.00, 1007.7,   94.0, -999.0
13-04-2022, 00:10:43,    219,    0.0,    7.9,   0.00,   0.00, 1007.8,   94.1, -999.0
13-04-2022, 00:10:53,    222,    0.0,    8.0,   0.00,   0.00, 1007.8,   94.0, -999.0
13-04-2022, 00:11:03,    222,    0.0,    7.9,   0.00,   0.00, 1007.8,   93.9, -999.0
13-04-2022, 00:11:13,    221,    0.0,    7.9,   0.00,   0.00, 1007.8,   93.9, -999.0
13-04-2022, 00:11:23,    221,    0.0,    7.9,   0.00,   0.00, 1007.7,   93.9, -999.0
13-04-2022, 00:11:33,    222,    0.0,    7.9,   0.00,   0.00, 1007.7,   93.9, -999.0
13-04-2022, 00:11:43,    222,    0.0,    7.9,   0.00,   0.00, 1007.8,   93.9, -999.0
13-04-2022, 00:11:53,    222,    0.0,    7.9,   0.00,   0.00, 1007.8,   93.9, -999.0
13-04-2022, 00:12:03,    222,    0.0,    7.9,   0.00,   0.00, 1007.7,   93.9, -999.0
13-04-2022, 00:12:13,    221,    0.0,    7.9,   0.00,   0.00, 1007.8,   93.8, -999.0
13-04-2022, 00:12:23,    222,    0.0,    7.9,   0.00,   0.00, 1007.7,   93.9, -999.0
13-04-2022, 00:12:33,    222,    0.0,    7.9,   0.00,   0.00, 1007.7,   93.9, -999.0
13-04-2022, 00:12:42,    221,    0.0,    7.9,   0.00,   0.00, 1007.8,   94.1, -999.0
13-04-2022, 00:12:53,    222,    0.0,    7.9,   0.00,   0.00, 1007.8,   94.0, -999.0
13-04-2022, 00:13:04,    221,    0.0,    7.9,   0.00,   0.00, 1007.7,   94.1, -999.0
13-04-2022, 00:13:12,    222,    0.0,    7.9,   0.00,   0.00, 1007.7,   94.0, -999.0
13-04-2022, 00:13:22,    221,    0.0,    7.9,   0.00,   0.00, 1007.7,   94.1, -999.0
13-04-2022, 00:13:32,    222,    0.0,    7.9,   0.00,   0.00, 1007.7,   94.1, -999.0
13-04-2022, 00:13:42,    221,    0.0,    7.9,   0.00,   0.00, 1007.7,   94.0, -999.0
13-04-2022, 00:13:52,    221,    0.0,    7.8,   0.00,   0.00, 1007.8,   94.0, -999.0
13-04-2022, 00:14:02,    221,    0.0,    7.9,   0.00,   0.00, 1007.7,   94.0, -999.0
13-04-2022, 00:14:12,    222,    0.0,    7.9,   0.00,   0.00, 1007.8,   94.1, -999.0
13-04-2022, 00:14:22,    222,    0.0,    7.8,   0.00,   0.00, 1007.8,   94.1, -999.0
13-04-2022, 00:14:32,    222,    0.0,    7.9,   0.00,   0.00, 1007.8,   94.0, -999.0
13-04-2022, 00:14:42,    222,    0.0,    7.9,   0.00,   0.00, 1007.8,   94.0, -999.0
13-04-2022, 00:14:52,    222,    0.0,    7.7,   0.00,   0.00, 1007.8,   94.0, -999.0
13-04-2022, 00:15:02,    221,    0.0,    7.9,   0.00,   0.00, 1007.8,   94.0, -999.0
13-04-2022, 00:15:12,    221,    0.0,    7.9,   0.00,   0.00, 1007.8,   94.1, -999.0
13-04-2022, 00:15:22,    222,    0.0,    7.9,   0.00,   0.00, 1007.8,   93.9, -999.0
13-04-2022, 00:15:32,    222,    0.0,    7.8,   0.00,   0.00, 1007.8,   94.1, -999.0
13-04-2022, 00:15:42,    221,    0.0,    7.9,   0.00,   0.00, 1007.8,   94.1, -999.0
13-04-2022, 00:15:51,    222,    0.0,    7.9,   0.00,   0.00, 1007.8,   94.2, -999.0
13-04-2022, 00:16:02,    222,    0.0,    7.9,   0.00,   0.00, 1007.8,   94.1, -999.0
13-04-2022, 00:16:12,    222,    0.0,    7.9,   0.00,   0.00, 1007.8,   94.2, -999.0
13-04-2022, 00:16:21,    221,    0.0,    7.9,   0.00,   0.00, 1007.8,   94.4, -999.0
13-04-2022, 00:16:31,    221,    0.0,    7.9,   0.00,   0.00, 1007.8,   94.3, -999.0
13-04-2022, 00:16:42,    222,    0.0,    7.9,   0.00,   0.00, 1007.8,   94.3, -999.0
13-04-2022, 00:16:51,    222,    0.0,    7.9,   0.00,   0.00, 1007.8,   94.3, -999.0
13-04-2022, 00:17:01,    222,    0.0,    7.9,   0.00,   0.00, 1007.8,   94.3, -999.0
13-04-2022, 00:17:11,    221,    0.0,    7.9,   0.00,   0.00, 1007.8,   94.3, -999.0
13-04-2022, 00:17:21,    222,    0.0,    7.9,   0.00,   0.00, 1007.8,   94.3, -999.0
13-04-2022, 00:17:31,    221,    0.0,    7.9,   0.00,   0.00, 1007.8,   94.3, -999.0
13-04-2022, 00:17:41,    221,    0.0,    7.9,   0.00,   0.00, 1007.8,   94.3, -999.0
13-04-2022, 00:17:51,    222,    0.0,    7.9,   0.00,   0.00, 1007.8,   94.2, -999.0
13-04-2022, 00:18:01,    222,    0.0,    7.9,   0.00,   0.00, 1007.8,   94.4, -999.0
13-04-2022, 00:18:11,    221,    0.0,    7.8,   0.00,   0.00, 1007.8,   94.3, -999.0
13-04-2022, 00:18:21,    222,    0.0,    7.9,   0.00,   0.00, 1007.8,   94.3, -999.0
13-04-2022, 00:18:31,    221,    0.0,    7.9,   0.00,   0.00, 1007.8,   94.1, -999.0
13-04-2022, 00:18:41,    221,    0.0,    7.9,   0.00,   0.00, 1007.8,   94.2, -999.0
13-04-2022, 00:18:51,    222,    0.0,    8.0,   0.00,   0.00, 1007.8,   94.5, -999.0
13-04-2022, 00:19:01,    221,    0.0,    7.9,   0.00,   0.00, 1007.8,   94.4, -999.0
13-04-2022, 00:19:11,    222,    0.0,    7.9,   0.00,   0.00, 1007.8,   94.4, -999.0
13-04-2022, 00:19:21,    222,    0.0,    7.9,   0.00,   0.00, 1007.8,   94.4, -999.0
13-04-2022, 00:19:30,    221,    0.0,    7.9,   0.00,   0.00, 1007.8,   94.5, -999.0
13-04-2022, 00:19:41,    222,    0.0,    7.9,   0.00,   0.00, 1007.8,   94.4, -999.0
13-04-2022, 00:19:51,    222,    0.0,    8.0,   0.00,   0.00, 1007.8,   94.4, -999.0
13-04-2022, 00:20:00,    221,    0.0,    7.9,   0.00,   0.00, 1007.8,   94.4, -999.0
13-04-2022, 00:20:10,    222,    0.0,    8.0,   0.00,   0.00, 1007.8,   94.5, -999.0
13-04-2022, 00:20:21,    223,    0.0,    7.9,   0.00,   0.00, 1007.8,   94.6, -999.0
13-04-2022, 00:20:30,    222,    0.0,    7.9,   0.00,   0.00, 1007.8,   94.5, -999.0
13-04-2022, 00:20:40,    222,    0.0,    7.9,   0.00,   0.00, 1007.8,   94.6, -999.0
13-04-2022, 00:20:50,    221,    0.0,    7.9,   0.00,   0.00, 1007.8,   94.5, -999.0
13-04-2022, 00:21:00,    222,    0.0,    7.9,   0.00,   0.00, 1007.8,   94.5, -999.0
13-04-2022, 00:21:10,    221,    0.0,    7.9,   0.00,   0.00, 1007.8,   94.5, -999.0
13-04-2022, 00:21:20,    222,    0.0,    7.9,   0.00,   0.00, 1007.8,   94.5, -999.0
13-04-2022, 00:21:30,    222,    0.0,    7.9,   0.00,   0.00, 1007.8,   94.6, -999.0
13-04-2022, 00:21:40,    222,    0.0,    8.0,   0.00,   0.00, 1007.8,   94.4, -999.0
13-04-2022, 00:21:50,    222,    0.0,    7.9,   0.00,   0.00, 1007.8,   94.6, -999.0
13-04-2022, 00:22:00,    222,    0.0,    7.9,   0.00,   0.00, 1007.8,   94.6, -999.0
13-04-2022, 00:22:10,    222,    0.0,    7.9,   0.00,   0.00, 1007.8,   94.6, -999.0
13-04-2022, 00:22:20,    222,    0.0,    8.0,   0.00,   0.00, 1007.8,   94.6, -999.0
13-04-2022, 00:22:30,    222,    0.0,    7.9,   0.00,   0.00, 1007.8,   94.5, -999.0
13-04-2022, 00:22:39,    222,    0.0,    8.0,   0.00,   0.00, 1007.8,   94.5, -999.0
13-04-2022, 00:22:50,    221,    0.0,    7.9,   0.00,   0.00, 1007.8,   94.6, -999.0
13-04-2022, 00:23:00,    222,    0.0,    7.9,   0.00,   0.00, 1007.8,   94.7, -999.0
13-04-2022, 00:23:09,    222,    0.0,    8.0,   0.00,   0.00, 1007.8,   94.5, -999.0
13-04-2022, 00:23:19,    220,    0.0,    7.9,   0.00,   0.00, 1007.8,   94.6, -999.0
13-04-2022, 00:23:30,    222,    0.0,    7.9,   0.00,   0.00, 1007.8,   94.6, -999.0
13-04-2022, 00:23:39,    222,    0.0,    8.0,   0.00,   0.00, 1007.8,   94.8, -999.0
13-04-2022, 00:23:49,    222,    0.0,    8.0,   0.00,   0.00, 1007.9,   94.8, -999.0
13-04-2022, 00:23:59,    221,    0.0,    8.0,   0.00,   0.00, 1007.8,   94.8, -999.0
13-04-2022, 00:24:09,    221,    0.0,    7.9,   0.00,   0.00, 1007.9,   94.8, -999.0
13-04-2022, 00:24:19,    223,    0.0,    8.0,   0.00,   0.00, 1007.9,   94.8, -999.0
13-04-2022, 00:24:29,    221,    0.0,    8.0,   0.00,   0.00, 1007.9,   94.7, -999.0
13-04-2022, 00:24:39,    222,    0.0,    8.0,   0.00,   0.00, 1007.8,   94.6, -999.0
13-04-2022, 00:24:49,    222,    0.0,    7.9,   0.00,   0.00, 1007.8,   94.6, -999.0
13-04-2022, 00:24:59,    222,    0.0,    7.9,   0.00,   0.00, 1007.8,   94.5, -999.0
13-04-2022, 00:25:09,    222,    0.0,    8.0,   0.00,   0.00, 1007.8,   94.6, -999.0
13-04-2022, 00:25:19,    222,    0.0,    8.0,   0.00,   0.00, 1007.8,   94.8, -999.0
13-04-2022, 00:25:29,    222,    0.0,    7.9,   0.00,   0.00, 1007.9,   94.7, -999.0
13-04-2022, 00:25:39,    221,    0.0,    8.0,   0.00,   0.00, 1007.9,   94.7, -999.0
13-04-2022, 00:25:49,    222,    0.0,    8.0,   0.00,   0.00, 1007.9,   94.8, -999.0
13-04-2022, 00:25:59,    222,    0.0,    8.0,   0.00,   0.00, 1007.9,   94.9, -999.0
13-04-2022, 00:26:09,    222,    0.0,    8.0,   0.00,   0.00, 1007.9,   94.8, -999.0
13-04-2022, 00:26:19,    222,    0.0,    8.0,   0.00,   0.00, 1007.9,   94.8, -999.0
13-04-2022, 00:26:28,    221,    0.0,    7.9,   0.00,   0.00, 1007.9,   94.8, -999.0
13-04-2022, 00:26:39,    222,    0.0,    8.0,   0.00,   0.00, 1007.9,   94.8, -999.0
13-04-2022, 00:26:48,    222,    0.0,    8.0,   0.00,   0.00, 1007.9,   94.7, -999.0
13-04-2022, 00:26:58,    221,    0.0,    7.9,   0.00,   0.00, 1007.9,   94.8, -999.0
13-04-2022, 00:27:09,    222,    0.0,    7.9,   0.00,   0.00, 1007.9,   94.7, -999.0
13-04-2022, 00:27:18,    221,    0.0,    8.0,   0.00,   0.00, 1007.9,   94.6, -999.0
13-04-2022, 00:27:28,    221,    0.0,    7.9,   0.00,   0.00, 1007.9,   94.7, -999.0
13-04-2022, 00:27:38,    222,    0.0,    7.9,   0.00,   0.00, 1007.9,   94.6, -999.0
13-04-2022, 00:27:48,    221,    0.0,    7.9,   0.00,   0.00, 1007.9,   94.7, -999.0
13-04-2022, 00:27:58,    221,    0.0,    7.9,   0.00,   0.00, 1007.9,   94.5, -999.0
13-04-2022, 00:28:08,    222,    0.0,    7.9,   0.00,   0.00, 1007.9,   94.5, -999.0
13-04-2022, 00:28:18,    221,    0.0,    7.9,   0.00,   0.00, 1007.9,   94.6, -999.0
13-04-2022, 00:28:28,    221,    0.0,    7.9,   0.00,   0.00, 1007.9,   94.7, -999.0
13-04-2022, 00:28:38,    221,    0.0,    7.9,   0.00,   0.00, 1007.9,   94.8, -999.0
13-04-2022, 00:28:48,    221,    0.0,    8.0,   0.00,   0.00, 1007.9,   94.8, -999.0
13-04-2022, 00:28:58,    221,    0.0,    7.9,   0.00,   0.00, 1007.9,   94.8, -999.0
13-04-2022, 00:29:08,    222,    0.0,    7.9,   0.00,   0.00, 1007.9,   94.7, -999.0
13-04-2022, 00:29:18,    221,    0.0,    7.9,   0.00,   0.00, 1007.9,   94.7, -999.0
13-04-2022, 00:29:28,    221,    0.0,    7.9,   0.00,   0.00, 1007.9,   94.8, -999.0
13-04-2022, 00:29:38,    221,    0.0,    7.9,   0.00,   0.00, 1007.9,   94.8, -999.0
13-04-2022, 00:29:48,    222,    0.0,    7.9,   0.00,   0.00, 1007.9,   94.8, -999.0
13-04-2022, 00:29:58,    221,    0.0,    7.9,   0.00,   0.00, 1007.9,   94.7, -999.0
13-04-2022, 00:30:07,    221,    0.0,    7.9,   0.00,   0.00, 1007.9,   94.8, -999.0
13-04-2022, 00:30:18,    222,    0.0,    7.9,   0.00,   0.00, 1007.9,   94.7, -999.0
13-04-2022, 00:30:28,    221,    0.0,    7.9,   0.00,   0.00, 1007.9,   94.8, -999.0
13-04-2022, 00:30:37,    221,    0.0,    7.9,   0.00,   0.00, 1007.9,   94.7, -999.0
13-04-2022, 00:30:47,    221,    0.0,    7.9,   0.00,   0.00, 1007.9,   94.7, -999.0
13-04-2022, 00:30:57,    221,    0.0,    7.9,   0.00,   0.00, 1007.9,   94.8, -999.0
13-04-2022, 00:31:07,    221,    0.0,    7.9,   0.00,   0.00, 1007.9,   94.7, -999.0
13-04-2022, 00:31:17,    222,    0.0,    7.9,   0.00,   0.00, 1007.9,   94.7, -999.0
13-04-2022, 00:31:27,    221,    0.0,    7.9,   0.00,   0.00, 1007.9,   94.7, -999.0
13-04-2022, 00:31:37,    221,    0.0,    7.9,   0.00,   0.00, 1007.9,   94.7, -999.0
13-04-2022, 00:31:47,    221,    0.0,    7.9,   0.00,   0.00, 1007.9,   94.8, -999.0
13-04-2022, 00:31:57,    221,    0.0,    7.9,   0.00,   0.00, 1007.9,   95.0, -999.0
13-04-2022, 00:32:07,    221,    0.0,    7.9,   0.00,   0.00, 1007.9,   95.0, -999.0
13-04-2022, 00:32:17,    221,    0.0,    7.9,   0.00,   0.00, 1007.9,   94.8, -999.0
13-04-2022, 00:32:27,    222,    0.0,    7.9,   0.00,   0.00, 1007.9,   94.9, -999.0
13-04-2022, 00:32:37,    221,    0.0,    7.9,   0.00,   0.00, 1007.9,   94.9, -999.0
13-04-2022, 00:32:47,    221,    0.0,    7.8,   0.00,   0.00, 1007.9,   94.7, -999.0
13-04-2022, 00:32:57,    221,    0.0,    7.9,   0.00,   0.00, 1007.9,   94.8, -999.0
13-04-2022, 00:33:07,    221,    0.0,    7.9,   0.00,   0.00, 1007.9,   94.7, -999.0
13-04-2022, 00:33:16,    221,    0.0,    7.9,   0.00,   0.00, 1007.9,   94.7, -999.0
13-04-2022, 00:33:27,    221,    0.0,    7.8,   0.00,   0.00, 1007.9,   94.7, -999.0
13-04-2022, 00:33:37,    221,    0.0,    7.9,   0.00,   0.00, 1007.9,   94.8, -999.0
13-04-2022, 00:33:46,    221,    0.0,    7.9,   0.00,   0.00, 1007.9,   94.8, -999.0
13-04-2022, 00:33:56,    221,    0.0,    7.9,   0.00,   0.00, 1007.9,   94.8, -999.0
13-04-2022, 00:34:07,    221,    0.0,    7.9,   0.00,   0.00, 1007.9,   94.7, -999.0
13-04-2022, 00:34:16,    221,    0.0,    7.8,   0.00,   0.00, 1007.9,   94.8, -999.0
13-04-2022, 00:34:26,    221,    0.0,    7.8,   0.00,   0.00, 1007.9,   94.8, -999.0
13-04-2022, 00:34:36,    221,    0.0,    7.9,   0.00,   0.00, 1007.9,   94.8, -999.0
13-04-2022, 00:34:46,    221,    0.0,    7.8,   0.00,   0.00, 1007.9,   94.9, -999.0
13-04-2022, 00:34:56,    221,    0.0,    7.8,   0.00,   0.00, 1007.9,   94.8, -999.0
13-04-2022, 00:35:06,    221,    0.0,    7.8,   0.00,   0.00, 1007.9,   94.8, -999.0
13-04-2022, 00:35:16,    221,    0.0,    7.8,   0.00,   0.00, 1007.9,   94.8, -999.0
13-04-2022, 00:35:26,    221,    0.0,    7.8,   0.00,   0.00, 1007.9,   94.7, -999.0
13-04-2022, 00:35:36,    221,    0.0,    7.7,   0.00,   0.00, 1007.9,   94.8, -999.0
13-04-2022, 00:35:46,    221,    0.0,    7.9,   0.00,   0.00, 1007.9,   94.9, -999.0
13-04-2022, 00:35:56,    222,    0.0,    7.8,   0.00,   0.00, 1007.9,   94.9, -999.0
13-04-2022, 00:36:06,    222,    0.0,    7.8,   0.00,   0.00, 1007.9,   94.9, -999.0
13-04-2022, 00:36:16,    222,    0.0,    7.8,   0.00,   0.00, 1007.9,   94.9, -999.0
13-04-2022, 00:36:25,    221,    0.0,    7.9,   0.00,   0.00, 1007.9,   94.8, -999.0
13-04-2022, 00:36:36,    221,    0.0,    7.8,   0.00,   0.00, 1007.9,   95.0, -999.0
13-04-2022, 00:36:46,    221,    0.0,    7.8,   0.00,   0.00, 1007.9,   94.8, -999.0
13-04-2022, 00:36:55,    222,    0.0,    7.8,   0.00,   0.00, 1007.9,   94.9, -999.0
13-04-2022, 00:37:06,    221,    0.0,    7.8,   0.00,   0.00, 1007.9,   95.0, -999.0
13-04-2022, 00:37:16,    221,    0.0,    7.8,   0.00,   0.00, 1007.9,   95.0, -999.0
13-04-2022, 00:37:25,    221,    0.0,    7.9,   0.00,   0.00, 1007.9,   95.1, -999.0
13-04-2022, 00:37:35,    221,    0.0,    7.8,   0.00,   0.00, 1007.9,   94.9, -999.0
13-04-2022, 00:37:46,    221,    0.0,    7.8,   0.00,   0.00, 1007.9,   95.1, -999.0
13-04-2022, 00:37:55,    221,    0.0,    7.9,   0.00,   0.00, 1007.9,   95.1, -999.0
13-04-2022, 00:38:05,    221,    0.0,    7.9,   0.00,   0.00, 1007.9,   95.1, -999.0
13-04-2022, 00:38:15,    221,    0.0,    7.9,   0.00,   0.00, 1007.9,   95.0, -999.0
13-04-2022, 00:38:25,    221,    0.0,    7.9,   0.00,   0.00, 1008.0,   95.1, -999.0
13-04-2022, 00:38:35,    221,    0.0,    7.8,   0.00,   0.00, 1007.9,   95.1, -999.0
13-04-2022, 00:38:45,    221,    0.0,    7.8,   0.00,   0.00, 1007.9,   95.1, -999.0
13-04-2022, 00:38:55,    221,    0.0,    7.9,   0.00,   0.00, 1007.9,   95.1, -999.0
13-04-2022, 00:39:05,    221,    0.0,    7.8,   0.00,   0.00, 1007.9,   95.1, -999.0
13-04-2022, 00:39:15,    221,    0.0,    7.8,   0.00,   0.00, 1007.9,   95.0, -999.0
13-04-2022, 00:39:25,    221,    0.0,    7.8,   0.00,   0.00, 1008.0,   95.1, -999.0
13-04-2022, 00:39:35,    221,    0.0,    7.9,   0.00,   0.00, 1008.0,   95.1, -999.0
13-04-2022, 00:39:45,    221,    0.0,    7.9,   0.00,   0.00, 1008.0,   95.1, -999.0
13-04-2022, 00:39:55,    221,    0.0,    7.8,   0.00,   0.00, 1008.0,   95.2, -999.0
13-04-2022, 00:40:05,    222,    0.0,    7.9,   0.00,   0.00, 1008.0,   95.2, -999.0
13-04-2022, 00:40:15,    221,    0.0,    7.8,   0.00,   0.00, 1008.0,   95.1, -999.0
13-04-2022, 00:40:25,    221,    0.0,    7.9,   0.00,   0.00, 1007.9,   95.1, -999.0
13-04-2022, 00:40:34,    221,    0.0,    7.8,   0.00,   0.00, 1007.9,   95.1, -999.0
13-04-2022, 00:40:44,    224,    0.0,    7.8,   0.00,   0.00, 1008.0,   95.3, -999.0
13-04-2022, 00:40:55,    221,    0.0,    7.8,   0.00,   0.00, 1007.9,   95.1, -999.0
13-04-2022, 00:41:04,    221,    0.0,    7.9,   0.00,   0.00, 1008.0,   95.3, -999.0
13-04-2022, 00:41:14,    221,    0.0,    7.8,   0.00,   0.00, 1008.0,   95.2, -999.0
13-04-2022, 00:41:24,    221,    0.0,    7.8,   0.00,   0.00, 1007.9,   95.2, -999.0
13-04-2022, 00:41:34,    221,    0.0,    7.8,   0.00,   0.00, 1008.0,   95.3, -999.0
13-04-2022, 00:41:44,    221,    0.0,    7.8,   0.00,   0.00, 1008.0,   95.2, -999.0
13-04-2022, 00:41:54,    221,    0.0,    7.8,   0.00,   0.00, 1007.9,   95.3, -999.0
13-04-2022, 00:42:04,    222,    0.0,    7.8,   0.00,   0.00, 1007.9,   95.3, -999.0
13-04-2022, 00:42:14,    222,    0.0,    7.8,   0.00,   0.00, 1008.0,   95.3, -999.0
13-04-2022, 00:42:24,    221,    0.0,    7.8,   0.00,   0.00, 1007.9,   95.2, -999.0
13-04-2022, 00:42:34,    221,    0.0,    7.8,   0.00,   0.00, 1008.0,   95.3, -999.0
13-04-2022, 00:42:44,    221,    0.0,    7.8,   0.00,   0.00, 1007.9,   95.3, -999.0
13-04-2022, 00:42:54,    199,    0.0,    7.8,   0.00,   0.00, 1007.9,   95.3, -999.0
13-04-2022, 00:43:04,    198,    0.0,    7.8,   0.00,   0.00, 1007.9,   95.5, -999.0
13-04-2022, 00:43:14,    198,    0.0,    7.8,   0.00,   0.00, 1007.9,   95.7, -999.0
13-04-2022, 00:43:24,    198,    0.0,    7.9,   0.00,   0.00, 1008.0,   95.6, -999.0
13-04-2022, 00:43:34,    198,    0.0,    7.9,   0.00,   0.00, 1008.0,   95.6, -999.0
13-04-2022, 00:43:44,    198,    0.0,    7.9,   0.00,   0.00, 1007.9,   95.7, -999.0
13-04-2022, 00:43:53,    198,    0.0,    7.8,   0.00,   0.00, 1007.9,   95.6, -999.0
13-04-2022, 00:44:04,    198,    0.0,    7.9,   0.00,   0.00, 1008.0,   95.6, -999.0
13-04-2022, 00:44:14,    198,    0.0,    7.9,   0.00,   0.00, 1008.0,   95.6, -999.0
13-04-2022, 00:44:23,    198,    0.0,    7.9,   0.00,   0.00, 1007.9,   95.6, -999.0
13-04-2022, 00:44:33,    198,    0.0,    7.9,   0.00,   0.00, 1007.9,   95.6, -999.0
13-04-2022, 00:44:43,    198,    0.0,    7.9,   0.00,   0.00, 1007.9,   95.5, -999.0
13-04-2022, 00:44:53,    198,    0.0,    7.9,   0.00,   0.00, 1007.9,   95.5, -999.0
13-04-2022, 00:45:03,    198,    0.0,    7.8,   0.00,   0.00, 1008.0,   95.5, -999.0
13-04-2022, 00:45:13,    198,    0.0,    7.8,   0.00,   0.00, 1007.9,   95.5, -999.0
13-04-2022, 00:45:23,    198,    0.0,    7.9,   0.00,   0.00, 1008.0,   95.6, -999.0
13-04-2022, 00:45:33,    198,    0.0,    7.9,   0.00,   0.00, 1008.0,   95.5, -999.0
13-04-2022, 00:45:43,    198,    0.0,    7.8,   0.00,   0.00, 1007.9,   95.6, -999.0
13-04-2022, 00:45:53,    198,    0.0,    7.9,   0.00,   0.00, 1007.9,   95.6, -999.0
13-04-2022, 00:46:03,    198,    0.0,    7.8,   0.00,   0.00, 1008.0,   95.5, -999.0
13-04-2022, 00:46:13,    198,    0.0,    7.9,   0.00,   0.00, 1007.9,   95.6, -999.0
13-04-2022, 00:46:23,    198,    0.0,    7.9,   0.00,   0.00, 1008.0,   95.6, -999.0
13-04-2022, 00:46:33,    198,    0.0,    7.9,   0.00,   0.00, 1007.9,   95.6, -999.0
13-04-2022, 00:46:43,    199,    0.0,    7.9,   0.00,   0.00, 1007.9,   95.7, -999.0